sat.trackr.live / text

‹ back to catalog

STARLINK-35638

NORAD 66169 · 2025-240Z

PAYLOAD ACTIVE UNKNOWN

§ Identity

Operator
Country
US
Launch date
2025-10-25
Launch site
AFWTR
Launch vehicle
Mass (kg)
RCS (m²)

Purposes: comms

External: N2YO · Heavens-Above · Gunter

§ Orbital elements

Epoch: 2026-09-20T22:16:27.225696Z

Period
93.85 min
Inclination
53.1581°
Eccentricity
0.0000581
Mean motion
15.34406282 rev/d
Perigee alt
462.3 km
Apogee alt
463.1 km
Semi-major
6,840.8 km
B*
5.5132e-4
RAAN
233.5764°
Arg perigee
56.0722°
Mean anomaly
304.0336°
Rev number
5,191

§ Raw data

STARLINK-356381 66169U 25240Z   26263.92809289  .00018300  00000+0  55132-3 0  99972 66169  53.1581 233.5764 0000581  56.0722 304.0336 15.34406282 51919

JSON: /api/v1/satellites/66169 · /tle

For live sub-satellite position, see the globe view (requires WebGL).

§ Visibility from observer

Set your observer location to see the next 7 days of passes ≥ 10°. The values pass through the URL so the page stays shareable.

No JS? Fill the form by hand. The geolocation button needs JavaScript.